Lid_Strength_Index
0 0 1 3 11 12 14 13 9 10 10 7 6 7 8 8 9 12 2 1 0 0 -0 -1 -1 -1 -1 -1 -1 -1 -1 -1 -1 -2 -2 -1 -1 -1 -2 -2 -1 -1 -1 -1 -1 -1 -1 -1 -1
3 3 2 7 13 16 15 10 11 9 7 6 6 6 8 9 5 4 3 1 0 -0 -0 -0 -1 -1 -1 -1 -1 -1 -1 -1 -1 -1 -2 -2 -1 -1 -1 -1 -2 -2 -2 -1 -1 -1 -1 -1 -1
2 1 7 10 13 16 15 10 9 7 6 7 7 5 7 8 4 4 1 0 -0 -0 -0 -0 -1 -1 -1 -1 -1 -1 -1 -1 -1 -1 -1 -1 -1 -1 -1 -1 -1 -1 -1 -1 -1 -1 -1 -1 -1
3 4 6 12 14 11 11 9 8 8 6 6 6 8 5 3 4 2 1 0 0 0 -0 -1 -1 -1 -1 -1 -1 -1 -1 -1 -1 -1 -1 -1 -2 -2 -1 -1 -1 -1 -1 -1 -1 -1 -1 -1 -1
3 6 12 13 13 10 9 7 7 8 8 7 6 9 7 3 1 1 1 0 1 0 -0 -0 -1 -1 -1 -1 -1 -1 -1 -1 -1 -1 -1 -2 -1 -1 -1 -1 -1 -1 -1 -1 -1 -1 -1 -1 -1
7 7 13 15 13 9 8 7 7 8 7 7 7 8 7 3 2 1 1 1 0 0 -0 -0 -1 -1 -1 -1 -1 -1 -1 -1 -1 -1 -2 -2 -1 -1 -1 -1 -1 -1 -1 -1 -1 -1 -1 -1 -1
8 10 13 13 12 11 9 6 8 8 8 7 5 9 6 4 2 1 1 0 0 -0 -0 -0 -0 -1 -1 -1 -1 -1 -1 -1 -1 -1 -2 -2 -1 -1 -1 -1 -1 -1 -1 -1 -1 -1 -1 -1 -1
7 9 13 12 12 12 7 7 5 7 8 4 4 9 9 4 2 1 1 1 1 0 0 1 1 0 0 -0 -1 -1 -1 -1 -1 -1 -2 -2 -2 -1 -1 -1 -1 -1 -1 -1 -1 -1 -1 -1 -1
4 11 13 12 12 10 7 8 6 4 6 5 5 5 4 2 2 2 2 2 1 1 0 0 0 -0 -0 -0 -1 -1 -1 -1 -1 -1 -1 -1 -0 -0 -1 -1 -1 -1 -1 -1 -1 -1 -1 -1 -1
8 12 11 8 8 9 7 7 7 7 7 7 6 4 3 3 3 4 4 4 3 2 1 0 0 0 0 -0 0 -0 -0 0 -0 -0 -1 -1 -0 0 -1 -1 -1 -1 -1 -1 -1 -1 -1 -1 -1
7 10 8 7 7 6 7 7 6 8 9 7 7 6 4 4 4 4 3 3 3 2 1 0 0 1 0 -0 1 1 1 1 1 -0 -1 -1 -1 -1 -1 -1 -1 -1 -1 -1 -1 -1 -1 -1 -1
9 7 7 7 6 7 8 7 8 7 7 5 5 4 4 4 4 4 4 3 3 2 1 1 0 0 0 0 1 1 1 1 1 0 -0 -0 -0 -0 -0 -0 -0 -0 -0 -1 -1 -1 -1 -1 -1
9 7 6 5 6 6 6 7 8 7 5 4 4 4 5 4 4 3 3 2 2 2 1 1 0 0 -0 0 0 1 1 0 0 0 -0 -1 -0 -0 -0 0 -1 -0 -1 -1 -1 -1 -1 -1 -1
7 7 7 6 6 7 8 8 7 7 5 5 5 5 5 4 4 3 3 3 3 2 2 1 1 0 -0 0 -0 1 1 0 0 -0 -0 -0 -1 -0 -0 -1 -0 -0 -1 -1 -1 -0 1 0 -0
7 9 8 7 7 8 7 10 10 6 5 6 6 5 5 4 4 4 3 3 2 2 2 1 1 1 0 0 -0 0 0 -0 0 0 -0 -0 -0 0 -0 -0 -0 -0 -1 -0 -1 -0 1 0 1
9 9 12 8 7 7 8 13 8 6 7 7 6 6 5 4 4 3 2 2 2 2 2 1 0 1 1 1 0 0 -0 0 0 0 -1 -0 -0 -1 -0 -0 -0 -0 -0 -1 -0 1 1 0 0
11 13 12 11 8 8 9 12 8 6 7 7 7 6 5 5 4 3 2 2 2 2 1 1 1 1 1 1 1 1 0 0 0 0 -1 -0 -1 -1 -0 -0 -0 -0 -0 -0 0 -0 0 1 1
13 13 11 11 9 9 11 11 8 7 7 7 7 6 6 5 4 3 2 2 2 2 1 1 1 1 1 1 1 1 1 1 1 0 -1 -0 -1 -1 -0 -0 0 -0 -0 0 0 0 0 0 1
11 13 12 10 8 10 11 11 9 8 8 8 7 7 6 5 4 3 3 2 2 1 2 1 2 2 2 1 2 2 2 1 1 0 -1 -1 -1 -0 -1 -1 -0 -0 0 0 0 0 1 1 1
11 12 12 10 8 9 11 11 9 8 8 7 7 7 6 6 5 4 3 3 2 2 2 2 2 2 2 2 2 1 1 1 0 0 -0 -1 0 -1 -0 -0 0 -0 0 0 0 1 1 2 2
12 13 12 11 8 10 11 13 11 9 8 7 7 6 6 6 5 5 4 3 3 2 2 2 2 2 1 1 2 1 1 1 1 1 0 -0 0 -1 -1 -1 -0 0 0 0 1 0 1 3 2
13 10 10 11 12 14 11 16 13 10 10 9 8 7 6 6 5 4 4 4 3 2 2 2 2 2 2 1 2 2 2 3 1 1 0 0 -1 -1 -1 -1 0 -0 1 1 0 -0 1 1 2
11 9 10 10 13 13 12 14 13 11 11 10 9 7 6 5 5 5 4 3 3 2 2 2 2 2 2 1 1 1 2 2 1 1 1 0 0 -0 -0 -0 0 0 1 0 1 0 1 2 2
8 10 12 13 14 16 14 14 14 12 10 9 8 7 6 5 5 4 3 3 3 2 2 2 2 2 2 2 2 1 2 2 2 1 1 1 0 -0 0 1 -0 0 0 0 -0 -0 1 1 1
12 14 16 16 17 17 15 14 13 11 9 8 8 8 6 5 5 5 4 4 3 3 2 2 2 2 2 2 2 1 1 2 2 2 2 1 1 1 0 1 1 1 1 0 0 0 0 0 1
13 13 16 19 18 17 15 15 13 9 7 7 6 7 6 5 5 5 4 4 3 3 2 2 2 2 2 2 2 1 1 2 2 1 1 1 1 1 -0 0 1 1 1 1 0 0 0 0 0
13 15 13 17 18 17 16 13 10 8 8 7 7 7 7 6 5 5 4 4 3 3 3 2 2 2 2 2 2 2 1 2 2 1 1 0 0 0 -0 -0 0 -0 -0 0 0 0 1 -0 0
11 12 15 17 18 19 17 15 14 11 9 8 8 8 7 6 5 4 4 4 3 3 2 2 2 2 2 1 1 1 1 1 1 0 1 1 0 -0 -0 0 0 0 -0 -0 0 0 0 0 0
14 15 16 16 17 18 18 16 12 10 9 9 8 7 7 6 5 5 4 3 3 3 2 2 2 2 2 1 1 1 1 1 0 1 1 1 0 -0 0 0 0 0 0 0 0 0 0 1 0
13 14 16 17 18 18 18 15 10 9 7 7 7 6 6 5 5 4 4 4 3 3 3 3 2 2 2 1 1 1 1 1 1 1 1 1 1 -0 0 -0 0 0 1 0 0 1 0 1 1